Auburn-Lewiston, ME

8:29 PM EST on November 11, 2019 (GMT -0500)
Auburn-Lewiston Municipal

Weather History for KLEW - October, 2019

Change the Weather History Date:

Sunday, October 20, 2019

  Actual Average Record
Temperature  
Mean Temperature 40 °F -  
Max Temperature 54 °F 52 °F 69 °F (2007)
Min Temperature 27 °F 33 °F 23 °F (2003)
Degree Days  
Heating Degree Days 24    
Moisture  
Dew Point 36 °F    
Average Humidity 83    
Maximum Humidity 100    
Minimum Humidity 57    
Precipitation  
Precipitation 0.00 in - - ()
Sea Level Pressure  
Sea Level Pressure 30.12 in    
Wind  
Wind Speed 1 mph (SSE)    
Max Wind Speed 7 mph    
Max Gust Speed -    
Visibility 10 miles    
Events      
Averages and records for this station are not official NWS values.
T = Trace of Precipitation, MM = Missing Value Source: NWS Daily Summary

Daily Weather History Graph

Daily Weather History Graph

Search for Another Location

Airport or City:

Astronomy

Oct. 20, 2019 Rise Set
Actual Time 7:01 AM EDT 5:49 PM EDT
Civil Twilight 6:32 AM EDT 6:18 PM EDT
Nautical Twilight 5:58 AM EDT 6:52 PM EDT
Astronomical Twilight 5:25 AM EDT 7:25 PM EDT
Moon 10:46 PM EDT (10/20) 1:35 PM EDT (10/20)
Length of Visible Light 11h 46m
Length of Day
10h 47m
Waning Gibbous, 59% of the Moon is Illuminated
Oct 20
Waning Gibbous
Oct 21
Last Quarter
Oct 27
New
Nov 4
First Quarter
Nov 12
Full

Hourly Weather History & Observations

Time (EDT) Temp. Windchill Dew Point Humidity Pressure Visibility Wind Dir Wind Speed Gust Speed Precip Events Conditions
12:56 AM 30.0 °F - 28.0 °F 92% 30.08 in 10.0 mi Calm Calm - N/A   Clear
1:56 AM 28.9 °F - 27.0 °F 92% 30.10 in 10.0 mi Calm Calm - N/A   Clear
2:56 AM 30.0 °F - 28.9 °F 96% 30.10 in 10.0 mi Calm Calm - N/A   Clear
3:56 AM 30.0 °F - 28.9 °F 96% 30.12 in 10.0 mi Calm Calm - N/A   Clear
4:56 AM 28.9 °F - 28.0 °F 96% 30.12 in 10.0 mi Calm Calm - N/A   Clear
5:56 AM 27.0 °F - 25.0 °F 92% 30.13 in 10.0 mi Calm Calm - N/A   Clear
6:56 AM 28.9 °F 25.2 °F 27.0 °F 92% 30.14 in 10.0 mi NNE 3.5 mph - N/A   Clear
7:56 AM 32.0 °F - 32.0 °F 100% 30.15 in 10.0 mi Calm Calm - N/A   Clear
8:56 AM 39.0 °F - 35.1 °F 86% 30.15 in 10.0 mi Calm Calm - N/A   Clear
9:56 AM 39.9 °F - 35.1 °F 83% 30.16 in 10.0 mi Calm Calm - N/A   Clear
10:56 AM 44.1 °F - 37.0 °F 76% 30.16 in 10.0 mi Calm Calm - N/A   Clear
11:56 AM 48.0 °F - 36.0 °F 63% 30.17 in 10.0 mi Calm Calm - N/A   Clear
12:56 PM 50.0 °F - 37.0 °F 61% 30.14 in 10.0 mi Calm Calm - N/A   Clear
1:56 PM 53.1 °F - 37.9 °F 57% 30.12 in 10.0 mi SW 6.9 mph - N/A   Clear
2:56 PM 53.1 °F - 39.0 °F 59% 30.11 in 10.0 mi SSW 4.6 mph - N/A   Clear
3:56 PM 54.0 °F - 41.0 °F 62% 30.11 in 10.0 mi SSE 3.5 mph - N/A   Clear
4:56 PM 53.1 °F - 43.0 °F 69% 30.10 in 10.0 mi Calm Calm - N/A   Clear
5:56 PM 51.1 °F - 44.1 °F 77% 30.10 in 10.0 mi SSE 4.6 mph - N/A   Clear
6:56 PM 50.0 °F - 44.1 °F 80% 30.11 in 10.0 mi South 6.9 mph - N/A   Partly Cloudy
7:56 PM 48.0 °F - 44.1 °F 86% 30.11 in 10.0 mi South 4.6 mph - N/A   Clear
8:56 PM 46.9 °F - 44.1 °F 90% 30.11 in 10.0 mi Calm Calm - N/A   Clear
9:56 PM 46.0 °F - 44.1 °F 93% 30.12 in 10.0 mi Calm Calm - N/A   Clear
10:56 PM 46.0 °F 44.8 °F 44.1 °F 93% 30.11 in 10.0 mi NE 3.5 mph - N/A   Clear
11:56 PM 45.0 °F 42.6 °F 44.1 °F 97% 30.10 in 10.0 mi ESE 4.6 mph - N/A   Overcast